Regional Weather Roundup
Issued by NWS

Home | Current Version | Previous Version | Text Only | Print | Product List | Glossary On
Versions: 1 2 3 4 5 6 7 8 9 10 11 12 13 14 15 16 17 18 19 20 21 22 23 24 25 26 27 28 29 30 31 32 33 34 35 36 37 38 39 40 41 42 43 44 45 46 47 48 49 50
000
ASUS43 KDMX 201706
RWRIA

WEATHER ROUNDUP FOR IOWA
NATIONAL WEATHER SERVICE DES MOINES IA
1200 PM CDT WED SEP 20 2017

NOTE: "FAIR" INDICATES FEW OR NO CLOUDS BELOW 12,000 FEET WITH NO
SIGNIFICANT WEATHER AND/OR OBSTRUCTIONS TO VISIBILITY.

* - THESE STATIONS ARE NOT NWS STATIONS...THUS NOT UNDER NWS
QUALITY CONTROL.  THEY ALSO DO NOT REPORT WEATHER SUCH
AS PRECIPITATION OR FOG.

IAZ001>003-012>014-020>022-031>034-043>046-201800-
   NORTHWEST IOWA

CITY           SKY/WX    TMP DP  RH WIND       PRES   REMARKS
CARROLL *      SUNNY     75  57  53 NW10      29.80S
CHEROKEE *     SUNNY     68  55  62 N9        29.85R
DENISON *      SUNNY     72  57  60 NW13      29.84R
LE MARS *      SUNNY     68  52  56 NW8G15    29.86R
ORANGE CITY *  SUNNY     66  54  63 NW8       29.86R
SHELDON *      SUNNY     66  52  59 NW12      29.84R
SIOUX CITY     SUNNY     67  54  63 NW13      29.86R
SPENCER        SUNNY     69  52  54 W14       29.84R
STORM LAKE *   SUNNY     70  52  52 NW16      29.84R
$$

IAZ055>058-069>071-079>083-090>094-201800-
   SOUTHWEST IOWA

CITY           SKY/WX    TMP DP  RH WIND       PRES   REMARKS
ATLANTIC *     CLOUDY    75  63  64 NW10      29.79R
AUDUBON *      SUNNY     75  61  60 N9        29.81R
CLARINDA *     CLOUDY    82  70  65 W10G17    29.79S HX  86
COUNCIL BLFS * SUNNY     73  57  56 NW10G17   29.82R
CRESTON *      PTSUNNY   82 -29   1 SW12      29.80R
HARLAN  *      SUNNY     75  55  50 N12       29.85R
LAMONI         PTSUNNY   83  71  67 SW10      29.79S HX  87
RED OAK *      PTSUNNY   79  64  61 N10       29.79R HX  81
SHENANDOAH *   MOSUNNY   81  66  61 NW9G17    29.79R HX  83
$$

IAZ047>049-059>061-072>074-084-201800-
   CENTRAL IOWA

CITY           SKY/WX    TMP DP  RH WIND       PRES   REMARKS
AMES           MOSUNNY   81  72  74 SW7       29.76S HX  85
ANKENY *       CLOUDY    82  72  69 SW8       29.77S HX  87
BOONE *        MOSUNNY   84  70  61 W8        29.76R HX  88
CHARITON *     MOSUNNY   82  72  69 SW16      29.79R HX  87
DES MOINES     PTSUNNY   84  70  62 SW8       29.76R HX  88
GRINNELL*      CLOUDY    81  69  67 S10       29.80R HX  84
KNOXVILLE *    PTSUNNY   84  70  61 SW15      29.77S HX  88
MARSHALLTOWN   MOSUNNY   81  71  71 S13       29.76S HX  85
NEWTON *       CLOUDY    82  70  65 S10       29.78S HX  86
PELLA *        PTSUNNY   85  69  57 SW10G16   29.79S HX  89
PERRY *          N/A     82  70  65 NW9       29.77R HX  86
$$

IAZ004>006-015-016-023>025-035-036-201800-
   NORTH CENTRAL IOWA

CITY           SKY/WX    TMP DP  RH WIND       PRES   REMARKS
ALGONA *       SUNNY     73  55  53 NW13      29.81R
CLARION *      SUNNY     77  63  61 NW12G17   29.79R
ESTHERVILLE    SUNNY     69  53  56 NW9       29.81R
FORT DODGE *   SUNNY     75  58  55 VRB7      29.80R
MASON CITY     SUNNY     78  65  63 NW15      29.79R HX  80
FOREST CITY *    N/A     73  57  56 NW10      29.79R
IOWA FALLS *     N/A     83  71  66 SW8       29.77S HX  87
$$

IAZ007>011-017>019-026>030-037>042-050>054-066-201800-
   NORTHEAST IOWA

CITY           SKY/WX    TMP DP  RH WIND       PRES   REMARKS
CEDAR RAPIDS   SUNNY     84  70  62 S16G24    29.78F HX  88
CHARLES CITY * CLOUDY    79  70  73 SW9G16    29.77R HX  81
CLINTON *      SUNNY     86  72  62 SW10      29.84S HX  92
DECORAH *      PTSUNNY   81  70  69 SW10G20   29.76S HX  84
DUBUQUE        SUNNY     82  70  66 S14       29.81F HX  86
MONTICELLO *   SUNNY     86  70  58 S13       29.79F HX  90
OELWEIN *      CLOUDY    81  72  74 SW16      29.78S HX  84
WATERLOO       CLOUDY    82  68  62 SW12      29.75S HX  85
$$

IAZ064-065-067-068-078-201800-
   EAST CENTRAL IOWA

CITY           SKY/WX    TMP DP  RH WIND       PRES   REMARKS
DAVENPORT      SUNNY     86  69  56 S13G21    29.85S HX  90
IOWA CITY      SUNNY     87  70  56 S15       29.81F HX  92
MT. PLEASANT * SUNNY     88  67  49 S12G17    29.82  HX  90
MUSCATINE *    SUNNY     90  68  48 SW14G21   29.82S HX  93
QUAD CITIES    SUNNY     89  70  53 SW8       29.82S HX  94
$$

IAZ062-063-075>077-085>089-095>099-201800-
   SOUTHEAST IOWA

CITY           SKY/WX    TMP DP  RH WIND       PRES   REMARKS
BURLINGTON     SUNNY     87  72  60 S13       29.83F HX  93
FAIRFIELD *    MOSUNNY   88  68  51 SW13G18   29.81F HX  91
FORT MADISON * SUNNY     86  72  62 S12       29.84F HX  92
KEOKUK *       SUNNY     88  72  58 S9G17     29.83F HX  94
OSKALOOSA *      N/A     86  70  58 SW12G17   29.80S HX  90
CENTERVILLE *    N/A     82  72  69 S13       29.83S HX  87
OTTUMWA        MOSUNNY   86  70  58 S14G20    29.79F HX  90
WASHINGTON *   SUNNY     88  72  58 SW9G15    29.82F HX  94
$$

ABBREVIATIONS USED IN REMARKS
   TC - TEMPERATURES IN CELSIUS
  WCI - WIND CHILL INDEX
   HX - HEAT INDEX
  VSB - VISIBILITY
$$





USA.gov is the U.S. government's official web portal to all federal, state and local government web resources and services.